Résultats de la compétition "6 jours de l'Aveyron - Etape 3" du 05-08-2008 organisée par le comité départemental du 12 - Aveyron
     
  Télécharger le fichier CSV.  
     
     

 Circuit "G"

Licence Nom Prénom Temps CN
précédent
Score sur
la course
Différence
2321DENAIXMichel0:58:0454216610+1189
1335BEAUDEUXPhilippe1:00:1554786370+892
2252GROSHENSDidier1:04:2859405954+14
9348MARTINEZFrancois1:04:3448075944+1137
8372ROCHERJ-Marc1:07:0748565719+863
2409POGUPhilippe1:08:3455015598+97
11440DUPOIRIEUXGilles1:09:3551015516+415
6930GARROTPascal1:10:0249015480+579
3818BASSETOlivier1:10:2653015449+148
1593DELENNEPierre1:14:0958825176-706
3203DESBRESTPatrick1:14:5143715128+757
60JAFFRYXavier1:16:2149595027+68
10719MAHLERGeorges1:16:5147334994+261
7986DERIAZJ-Luc1:20:1456144784-830
9179ALESSANDRIPierre1:21:2050014719-282
5603MANETP-Jean1:21:2144814718+237
5676BALLIOTYvan1:22:0958324672-1160
3132GIRESylvain1:24:31N/A4541N/A
2822DICKBURTMichel1:25:0945704507-63
407TREZEGUETGilles1:25:2845734491-82
9460MONTEMONTPatrice1:25:2944684490+22
3546GIBIATFrederic1:25:5544024467+65
8081LEGEREPascal1:26:1644674449-18
11472LACASSINRobin1:26:3246244435-189
1910MEYERJ-Marc1:26:5745674414-153
1100SCHIAVOGilles1:27:0733864406+1020
14310RAOUXPierre1:27:3642544381+127
4124ORANOAlain1:27:4043544378+24
8773GRATIENJacques1:29:3940184281+263
9629SMIRNOVKonstantin1:29:4156954280-1415
10660GOUDARDOlivier1:29:4236374279+642
3956LILLAZPascal1:30:2346004246-354
13088GRENOUILLATJ-Louis1:33:2833094106+797
7902PORTRONAlain1:34:4041824054-128
18620BANIKFrédéric1:34:5137194046+327
2379BILQUEZEric1:35:1643614029-332
1658SPANIERLuc1:35:2949674020-947
8240RAYMONDAUDJacques1:36:2540473981-66
17202LAMINETTEFrancois1:36:5530733960+887
7877VANDEWEEGHEVincent1:39:0444313874-557
681MATHEPatrick1:39:1540273867-160
14947JOUVEBernard1:43:0140713726-345
484MERMINEric1:43:2748763710-1166
18199BERGOENDJ. Robert1:44:0134353690+255
5640HUEBERFrancois1:44:4646203663-957
5119PICARDJ-Pierre1:45:1334933648+155
3384EUDIERPatrick1:46:0250863620-1466
3353BONNEAUPaul1:47:2638263573-253
15322AVIRONMichel1:49:3838163501-315
11088LE BORGNEPascal1:54:2730863354+268
19642LECONTEGilbert1:54:32N/A3351N/A
10367SIAUDPhilippe1:56:2433033297-6
3030SABATIERFrancois1:56:5640593282-777
10901RAVENELPhilippe1:57:5840873254-833
1752GRANSARTRenaud1:58:0539163250-666
4470DUPRONPascal1:58:5248343229-1605
13240ARNOULDBruno1:59:3732833209-74
2691VARINGuy2:01:3425673157+590
2732PORTEJ-Luc2:01:5337073149-558
13398DELAGEJ-Gilles2:02:5829643121+157
8180L'HUILLIERPhilippe2:05:1827943063+269
9462BOUCHETJ-Michel2:06:54N/A3025N/A
18078RADISSONBruno2:09:4329912959-32
8733COULIERFrancois2:16:5925252802+277
11343CORDEIRO MENDESPaulo2:19:0228482761-87
16174BREDOUXBruno2:23:1031512681-470
16448VARELAPatrick2:23:4730582669-389
6534DEMAISONGuy2:27:1341772607-1570
10338ROGIERYann2:30:0222892558+269
2936SANDEVOIRBenoitN/A55260-5526
14691ROZAND-LELOUPEmmanuelN/A33000-3300

  Indice de confiance du circuit (moyenne des différences entre CN et score sur la course des 3 à 10 premiers) : 134






 Retour